Location: *
(46.3500°N, 10.9000°E)
Time: 00:41:24
(UTC+00:00)

Vanguard 2 - Pass Details

Date: 24 April 2021
Orbit: 552 x 2938 km, 32.9° (Epoch: 12 May)

Event Time Altitude Azimuth Distance (km) Brightness Sun altitude
Rises 07:00:59 0° 180° (S) 6,565 12.4 27.6°
Reaches altitude 10° 07:09:38 10° 156° (SSE) 5,749 12.6 29.1°
Maximum altitude 07:15:35 13° 136° (SE) 5,523 12.9 30.1°
Drops below altitude 10° 07:21:24 10° 116° (ESE) 5,632 13.4 31.1°
Sets 07:29:27 0° 92° (E) 6,309 13.2 32.4°
